H1 CPF 2 NER 2023 5 8 9 128 01 glonass143 H2 2007501 9143 46805 2023 5 8 0 0 0 2023 5 11 23 45 0 900 1 1 0 0 0 1 H9 10 0 60072 0.00000 0 -6348816.763 10163276.978 22525637.358 10 0 60072 900.00000 0 -9069173.169 10059189.914 21621479.480 10 0 60072 1800.00000 0 -11653071.996 10151502.177 20297677.615 10 0 60072 2700.00000 0 -14037093.566 10416665.970 18579833.906 10 0 60072 3600.00000 0 -16164603.024 10820622.079 16501208.273 10 0 60072 4500.00000 0 -17987891.188 11320347.090 14102081.980 10 0 60072 5400.00000 0 -19469953.647 11865794.858 11428983.525 10 0 60072 6300.00000 0 -20585834.016 12402150.739 8533790.979 10 0 60072 7200.00000 0 -21323475.173 12872303.585 5472727.642 10 0 60072 8100.00000 0 -21684042.812 13219430.904 2305270.215 10 0 60072 9000.00000 0 -21681707.716 13389587.422 -907009.301 10 0 60072 9900.00000 0 -21342895.994 13334186.738 -4101645.020 10 0 60072 10800.00000 0 -20705039.113 13012270.005 -7216497.946 10 0 60072 11700.00000 0 -19814876.823 12392464.413 -10190971.541 10 0 60072 12600.00000 0 -18726385.134 11454547.291 -12967197.519 10 0 60072 13500.00000 0 -17498417.422 10190548.352 -15491167.972 10 0 60072 14400.00000 0 -16192158.895 8605342.237 -17713791.104 10 0 60072 15300.00000 0 -14868502.425 6716705.169 -19591849.554 10 0 60072 16200.00000 0 -13585456.858 4554832.213 -21088842.422 10 0 60072 17100.00000 0 -12395697.270 2161334.450 -22175694.694 10 0 60072 18000.00000 0 -11344360.340 -412242.751 -22831320.458 10 0 60072 18900.00000 0 -10467177.364 -3106319.082 -23043029.383 10 0 60072 19800.00000 0 -9789022.895 -5855517.648 -22806769.015 10 0 60072 20700.00000 0 -9322939.362 -8591149.507 -22127198.667 10 0 60072 21600.00000 0 -9069677.758 -11243841.484 -21017593.861 10 0 60072 22500.00000 0 -9017772.775 -13746198.461 -19499583.515 10 0 60072 23400.00000 0 -9144148.234 -16035389.875 -17602725.197 10 0 60072 24300.00000 0 -9415226.357 -18055553.451 -15363926.810 10 0 60072 25200.00000 0 -9788493.310 -19759916.795 -12826725.995 10 0 60072 26100.00000 0 -10214454.206 -21112549.161 -10040441.296 10 0 60072 27000.00000 0 -10638894.479 -22089671.360 -7059211.658 10 0 60072 27900.00000 0 -11005351.601 -22680470.027 -3940942.986 10 0 60072 28800.00000 0 -11257692.290 -22887383.234 -746182.402 10 0 60072 29700.00000 0 -11342685.986 -22725846.760 2463057.697 10 0 60072 30600.00000 0 -11212465.546 -22223512.678 5624502.798 10 0 60072 31500.00000 0 -10826770.972 -21418974.158 8676823.071 10 0 60072 32400.00000 0 -10154881.264 -20360050.995 11560820.286 10 0 60072 33300.00000 0 -9177152.548 -19101708.418 14220571.992 10 0 60072 34200.00000 0 -7886097.310 -17703697.042 16604510.925 10 0 60072 35100.00000 0 -6286958.755 -16228013.125 18666419.227 10 0 60072 36000.00000 0 -4397755.407 -14736285.499 20366318.772 10 0 60072 36900.00000 0 -2248793.053 -13287198.299 21671241.031 10 0 60072 37800.00000 0 118336.784 -11934056.830 22555862.268 10 0 60072 38700.00000 0 2652231.530 -10722597.750 23002992.391 10 0 60072 39600.00000 0 5293565.498 -9689134.442 23003908.439 10 0 60072 40500.00000 0 7977314.189 -8859114.488 22558526.428 10 0 60072 41400.00000 0 10635224.115 -8246149.034 21675408.154 10 0 60072 42300.00000 0 13198426.953 -7851554.302 20371602.401 10 0 60072 43200.00000 0 15600090.712 -7664424.302 18672322.951 10 0 60072 44100.00000 0 17777998.658 -7662231.655 16610468.739 10 0 60072 45000.00000 0 19676949.348 -7811931.460 14225994.471 10 0 60072 45900.00000 0 21250878.121 -8071521.926 11565142.923 10 0 60072 46800.00000 0 22464611.629 -8391996.190 8679552.954 10 0 60072 47700.00000 0 23295181.899 -8719602.973 5625259.946 10 0 60072 48600.00000 0 23732644.688 -8998320.409 2461607.779 10 0 60072 49500.00000 0 23780367.553 -9172437.964 -749906.530 10 0 60072 50400.00000 0 23454775.335 -9189136.458 -3946832.659 10 0 60072 51300.00000 0 22784563.750 -9000956.003 -7066987.356 10 0 60072 52200.00000 0 21809414.312 -8568046.144 -10049670.823 10 0 60072 53100.00000 0 20578265.060 -7860101.676 -12836854.541 10 0 60072 54000.00000 0 19147210.442 -6857900.867 -15374316.572 10 0 60072 54900.00000 0 17577119.336 -5554379.730 -17612701.594 10 0 60072 55800.00000 0 15931072.156 -3955195.693 -19508484.481 10 0 60072 56700.00000 0 14271725.321 -2078755.771 -21024818.474 10 0 60072 57600.00000 0 12658714.252 44293.099 -22132251.467 10 0 60072 58500.00000 0 11146204.102 2372091.048 -22809296.653 10 0 60072 59400.00000 0 9780690.841 4853067.440 -23042846.871 10 0 60072 60300.00000 0 8599144.489 7427856.128 -22828425.031 10 0 60072 61200.00000 0 7627571.633 10031544.421 -22170266.229 10 0 60072 62100.00000 0 6880056.512 12596162.578 -21081230.417 10 0 60072 63000.00000 0 6358319.760 15053310.573 -19582547.584 10 0 60072 63900.00000 0 6051812.061 17336813.208 -17703400.702 10 0 60072 64800.00000 0 5938337.488 19385293.459 -15480354.612 10 0 60072 65700.00000 0 5985179.058 21144557.357 -12956642.018 10 0 60072 66600.00000 0 6150677.952 22569691.483 -10181320.526 10 0 60072 67500.00000 0 6386198.798 23626786.253 -7208317.160 10 0 60072 68400.00000 0 6638397.228 24294213.683 -4095378.987 10 0 60072 69300.00000 0 6851693.229 24563407.036 -902950.461 10 0 60072 70200.00000 0 6970845.202 24439110.558 2307000.566 10 0 60072 71100.00000 0 6943515.483 23939089.729 5472185.168 10 0 60072 72000.00000 0 6722718.576 23093315.163 8531200.426 10 0 60072 72900.00000 0 6269048.391 21942655.070 11424717.831 10 0 60072 73800.00000 0 5552590.157 20537131.796 14096630.030 10 0 60072 74700.00000 0 4554436.094 18933815.928 16495133.868 10 0 60072 75600.00000 0 3267740.498 17194446.339 18573729.207 10 0 60072 76500.00000 0 1698269.232 15382875.720 20292114.751 10 0 60072 77400.00000 0 -135580.307 13562448.120 21616964.142 10 0 60072 78300.00000 0 -2203290.739 11793417.498 22522568.045 10 0 60072 79200.00000 0 -4463247.747 10130514.369 22991330.375 10 0 60072 80100.00000 0 -6864233.459 8620761.308 23014109.524 10 0 60072 81000.00000 0 -9347329.608 7301627.633 22590398.195 10 0 60072 81900.00000 0 -11848152.877 6199599.515 21728338.270 10 0 60072 82800.00000 0 -14299331.011 5329224.602 20444570.052 10 0 60072 83700.00000 0 -16633118.026 4692670.565 18763918.121 10 0 60072 84600.00000 0 -18784040.816 4279815.720 16718919.032 10 0 60072 85500.00000 0 -20691467.648 4068867.750 14349199.007 10 0 60073 0.00000 0 -22301991.744 4027484.393 11700712.971 10 0 60073 900.00000 0 -23571531.331 4114348.899 8824857.337 10 0 60073 1800.00000 0 -24467056.017 4281133.728 5777476.763 10 0 60073 2700.00000 0 -24967869.688 4474769.240 2617779.090 10 0 60073 3600.00000 0 -25066393.403 4639921.112 -592816.967 10 0 60073 4500.00000 0 -24768415.847 4721570.904 -3791880.004 10 0 60073 5400.00000 0 -24092800.284 4667589.613 -6917185.854 10 0 60073 6300.00000 0 -23070660.157 4431194.080 -9907934.739 10 0 60073 7200.00000 0 -21744038.033 3973181.001 -12705941.067 10 0 60073 8100.00000 0 -20164143.709 3263842.630 -15256771.858 10 0 60073 9000.00000 0 -18389225.970 2284481.845 -17510810.971 10 0 60073 9900.00000 0 -16482167.922 1028461.264 -19424227.867 10 0 60073 10800.00000 0 -14507907.379 -498258.999 -20959831.844 10 0 60073 11700.00000 0 -12530790.873 -2277118.736 -22087795.102 10 0 60073 12600.00000 0 -10611972.396 -4277491.242 -22786230.811 10 0 60073 13500.00000 0 -8806965.762 -6457731.609 -23041615.297 10 0 60073 14400.00000 0 -7163452.612 -8766696.588 -22849046.616 10 0 60073 15300.00000 0 -5719437.143 -11145673.047 -22212334.962 10 0 60073 16200.00000 0 -4501823.781 -13530635.084 -21143923.574 10 0 60073 17100.00000 0 -3525476.103 -15854736.069 -19664642.014 10 0 60073 18000.00000 0 -2792795.046 -18050932.047 -17803296.837 10 0 60073 18900.00000 0 -2293832.589 -20054627.505 -15596107.769 10 0 60073 19800.00000 0 -2006934.598 -21806233.445 -13086000.362 10 0 60073 20700.00000 0 -1899884.356 -23253531.387 -10321768.969 10 0 60073 21600.00000 0 -1931497.259 -24353745.013 -7357126.347 10 0 60073 22500.00000 0 -2053598.269 -25075233.230 -4249658.414 10 0 60073 23400.00000 0 -2213297.671 -25398734.432 -1059704.674 10 0 60073 24300.00000 0 -2355468.175 -25318110.334 2150813.785 10 0 60073 25200.00000 0 -2425318.024 -24840558.954 5319595.774 10 0 60073 26100.00000 0 -2370950.911 -23986288.403 8385167.415 10 0 60073 27000.00000 0 -2145804.143 -22787665.808 11288071.999 10 0 60073 27900.00000 0 -1710861.820 -21287877.478 13972019.289 10 0 60073 28800.00000 0 -1036549.351 -19539156.736 16384972.177 10 0 60073 29700.00000 0 -104229.122 -17600653.732 18480150.083 10 0 60073 30600.00000 0 1092766.140 -15536036.149 20216930.213 10 0 60073 31500.00000 0 2548606.370 -13410920.689 21561629.872 10 0 60073 32400.00000 0 4244966.608 -11290241.910 22488155.385 10 0 60073 33300.00000 0 6151559.931 -9235667.346 22978505.698 10 0 60073 34200.00000 0 8227180.033 -7303165.723 23023121.346 10 0 60073 35100.00000 0 10421211.443 -5540828.625 22621072.262 10 0 60073 36000.00000 0 12675546.095 -3987035.412 21780080.730 10 0 60073 36900.00000 0 14926827.915 -2669037.050 20516378.661 10 0 60073 37800.00000 0 17108933.368 -1602017.185 18854401.306 10 0 60073 38700.00000 0 19155585.808 -788669.123 16826322.461 10 0 60073 39600.00000 0 21002995.404 -219305.946 14471439.222 10 0 60073 40500.00000 0 22592415.004 127501.154 11835417.215 10 0 60073 41400.00000 0 23872505.218 283783.454 8969410.066 10 0 60073 42300.00000 0 24801409.499 290582.417 5929069.588 10 0 60073 43200.00000 0 25348451.815 195972.069 2773465.547 10 0 60073 44100.00000 0 25495384.982 52780.050 -436064.040 10 0 60073 45000.00000 0 25237136.539 -83895.584 -3637109.368 10 0 60073 45900.00000 0 24582020.103 -159267.857 -6767408.238 10 0 60073 46800.00000 0 23551402.800 -121430.291 -9766063.877 10 0 60073 47700.00000 0 22178842.423 76195.763 -12574736.598 10 0 60073 48600.00000 0 20508730.465 472640.722 -15138785.268 10 0 60073 49500.00000 0 18594498.144 1097488.548 -17408335.680 10 0 60073 50400.00000 0 16496460.984 1969382.132 -19339254.461 10 0 60073 51300.00000 0 14279392.696 3094996.569 -20894009.342 10 0 60073 52200.00000 0 12009930.262 4468524.617 -22042399.018 10 0 60073 53100.00000 0 9753919.049 6071696.931 -22762138.586 10 0 60073 54000.00000 0 7573808.930 7874337.038 -23039289.554 10 0 60073 54900.00000 0 5526209.898 9835428.465 -22868526.522 10 0 60073 55800.00000 0 3659708.715 11904649.916 -22253235.824 10 0 60073 56700.00000 0 2013036.861 14024314.758 -21205444.639 10 0 60073 57600.00000 0 613665.132 16131634.178 -19745582.317 10 0 60073 58500.00000 0 -523117.748 18161209.765 -17902078.776 10 0 60073 59400.00000 0 -1394605.519 20047651.659 -15710807.936 10 0 60073 60300.00000 0 -2010538.703 21728213.168 -13214387.049 10 0 60073 61200.00000 0 -2392440.175 23145331.903 -10461345.635 10 0 60073 62100.00000 0 -2572451.523 24248971.378 -7505180.173 10 0 60073 63000.00000 0 -2591720.695 24998665.404 -4403313.044 10 0 60073 63900.00000 0 -2498410.122 25365179.853 -1215976.097 10 0 60073 64800.00000 0 -2345410.496 25331722.457 1994959.319 10 0 60073 65700.00000 0 -2187857.620 24894650.431 5167182.908 10 0 60073 66600.00000 0 -2080557.887 24063646.507 8239153.082 10 0 60073 67500.00000 0 -2075431.630 22861356.473 11151288.203 10 0 60073 68400.00000 0 -2219082.630 21322503.592 13847118.384 10 0 60073 69300.00000 0 -2550596.611 19492517.189 16274375.701 10 0 60073 70200.00000 0 -3099661.788 17425732.720 18386002.115 10 0 60073 71100.00000 0 -3885090.901 15183238.328 20141056.139 10 0 60073 72000.00000 0 -4913807.339 12830457.324 21505501.317 10 0 60073 72900.00000 0 -6180338.574 10434566.713 22452861.945 10 0 60073 73800.00000 0 -7666839.065 8061858.426 22964733.984 10 0 60073 74700.00000 0 -9343642.768 5775152.126 23031141.699 10 0 60073 75600.00000 0 -11170323.539 3631366.144 22650733.397 10 0 60073 76500.00000 0 -13097220.590 1679346.535 21830812.392 10 0 60073 77400.00000 0 -15067366.849 -41956.376 20587202.263 10 0 60073 78300.00000 0 -17018741.155 -1504888.927 18943948.392 10 0 60073 79200.00000 0 -18886751.555 -2694014.835 16932860.686 10 0 60073 80100.00000 0 -20606846.915 -3606517.877 14592905.397 10 0 60073 81000.00000 0 -22117148.296 -4252070.151 11969456.864 10 0 60073 81900.00000 0 -23360990.188 -4652171.883 9113422.763 10 0 60073 82800.00000 0 -24289264.973 -4838990.901 6080259.251 10 0 60073 83700.00000 0 -24862471.739 -4853751.074 2928894.719 10 0 60073 84600.00000 0 -25052382.705 -4744738.247 -279416.981 10 0 60073 85500.00000 0 -24843256.260 -4565008.552 -3482291.202 10 0 60074 0.00000 0 -24232544.775 -4369896.898 -6617431.024 10 0 60074 900.00000 0 -23231066.144 -4214431.951 -9623846.789 10 0 60074 1800.00000 0 -21862632.023 -4150768.427 -12443047.890 10 0 60074 2700.00000 0 -20163146.865 -4225746.219 -15020188.325 10 0 60074 3600.00000 0 -18179216.007 -4478681.101 -17305138.837 10 0 60074 4500.00000 0 -15966320.967 -4939481.445 -19253465.875 10 0 60074 5400.00000 0 -13586638.514 -5627171.571 -20827297.786 10 0 60074 6300.00000 0 -11106594.942 -6548884.954 -21996061.387 10 0 60074 7200.00000 0 -8594257.940 -7699370.501 -22737074.711 10 0 60074 8100.00000 0 -6116674.915 -9061033.333 -23035984.837 10 0 60074 9000.00000 0 -3737268.615 -10604508.953 -22887042.683 10 0 60074 9900.00000 0 -1513398.173 -12289747.164 -22293209.941 10 0 60074 10800.00000 0 505813.496 -14067560.657 -21266096.473 10 0 60074 11700.00000 0 2281296.421 -15881573.788 -19825729.754 10 0 60074 12600.00000 0 3785419.886 -17670490.121 -18000161.073 10 0 60074 13500.00000 0 5002891.972 -19370584.070 -15824916.307 10 0 60074 14400.00000 0 5931136.346 -20918312.457 -13342301.991 10 0 60074 15300.00000 0 6580132.263 -22252936.702 -10600580.252 10 0 60074 16200.00000 0 6971726.235 -23319045.951 -7653028.674 10 0 60074 17100.00000 0 7138445.945 -24068875.447 -4556903.453 10 0 60074 18000.00000 0 7121867.801 -24464322.963 -1372326.133 10 0 60074 18900.00000 0 6970608.292 -24478578.931 1838884.244 10 0 60074 19800.00000 0 6738024.910 -24097301.835 5014410.763 10 0 60074 20700.00000 0 6479724.587 -23319289.800 8092646.511 10 0 60074 21600.00000 0 6250985.457 -22156620.412 11013887.165 10 0 60074 22500.00000 0 6104201.165 -20634252.825 13721485.264 10 0 60074 23400.00000 0 6086455.814 -18789108.854 16162943.947 10 0 60074 24300.00000 0 6237331.971 -16668671.279 18290929.371 10 0 60074 25200.00000 0 6587044.171 -14329157.574 20064182.743 10 0 60074 26100.00000 0 7154976.655 -11833344.682 21448314.947 10 0 60074 27000.00000 0 7948687.132 -9248134.741 22416469.051 10 0 60074 27900.00000 0 8963418.904 -6641962.098 22949838.528 10 0 60074 28800.00000 0 10182142.615 -4082148.400 23038031.593 10 0 60074 29700.00000 0 11576126.868 -1632314.543 22679274.872 10 0 60074 30600.00000 0 13106015.081 650044.178 21880452.432 10 0 60074 31500.00000 0 14723364.853 2715719.975 20656979.044 10 0 60074 32400.00000 0 16372586.816 4525602.645 19032509.572 10 0 60074 33300.00000 0 17993203.151 6052063.280 17038489.207 10 0 60074 34200.00000 0 19522332.234 7279854.623 14713552.382 10 0 60074 35100.00000 0 20897296.118 8206490.998 12102780.982 10 0 60074 36000.00000 0 22058241.886 8842092.417 9256835.367 10 0 60074 36900.00000 0 22950666.784 9208699.809 6230974.450 10 0 60074 37800.00000 0 23527740.680 9339090.621 3083983.420 10 0 60074 38700.00000 0 23752327.409 9275145.199 -122970.069 10 0 60074 39600.00000 0 23598618.996 9065833.512 -3327528.754 10 0 60074 40500.00000 0 23053312.863 8764908.060 -6467363.887 10 0 60074 41400.00000 0 22116281.341 8428401.425 -9481394.205 10 0 60074 42300.00000 0 20800704.314 8112035.399 -12310981.129 10 0 60074 43200.00000 0 19132658.570 7868652.385 -14901076.103 10 0 60074 44100.00000 0 17150180.452 7745778.843 -17201297.025 10 0 60074 45000.00000 0 14901840.767 7783424.825 -19166912.244 10 0 60074 45900.00000 0 12444891.442 8012213.509 -20759712.692 10 0 60074 46800.00000 0 9843061.348 8451920.444 -21948755.155 10 0 60074 47700.00000 0 7164093.403 9110484.734 -22710962.340 10 0 60074 48600.00000 0 4477125.609 9983534.282 -23031568.473 10 0 60074 49500.00000 0 1850024.993 11054445.430 -22904402.182 10 0 60074 50400.00000 0 -653214.855 12294934.747 -22332001.647 10 0 60074 51300.00000 0 -2974904.920 13666158.276 -21325560.212 10 0 60074 52200.00000 0 -5065820.237 15120272.285 -19904703.899 10 0 60074 53100.00000 0 -6886998.824 16602390.087 -18097105.370 10 0 60074 54000.00000 0 -8411106.460 18052852.947 -15937942.030 10 0 60074 54900.00000 0 -9623311.859 19409719.819 -13469208.847 10 0 60074 55800.00000 0 -10521637.298 20611371.450 -10738899.302 10 0 60074 56700.00000 0 -11116771.784 21599119.551 -7800070.462 10 0 60074 57600.00000 0 -11431356.284 22319711.428 -4709810.374 10 0 60074 58500.00000 0 -11498772.652 22727624.833 -1528128.041 10 0 60074 59400.00000 0 -11361488.695 22787056.565 1683212.324 10 0 60074 60300.00000 0 -11069030.339 22473521.163 4861889.932 10 0 60074 61200.00000 0 -10675667.463 21774992.602 7946235.445 10 0 60074 62100.00000 0 -10237911.754 20692540.904 10876424.890 10 0 60074 63000.00000 0 -9811932.657 19240436.859 13595636.350 10 0 60074 63900.00000 0 -9451000.679 17445720.239 16051147.157 10 0 60074 64800.00000 0 -9203065.910 15347249.201 18195350.745 10 0 60074 65700.00000 0 -9108573.755 12994270.067 19986674.001 10 0 60074 66600.00000 0 -9198609.743 10444566.503 21390377.956 10 0 60074 67500.00000 0 -9493451.439 7762264.306 22379227.020 10 0 60074 68400.00000 0 -10001588.414 5015382.088 22934014.438 10 0 60074 69300.00000 0 -10719251.787 2273228.508 23043934.244 10 0 60074 70200.00000 0 -11630473.647 -396247.056 22706792.817 10 0 60074 71100.00000 0 -12707674.718 -2929041.695 21929055.885 10 0 60074 72000.00000 0 -13912756.658 -5267517.694 20725729.773 10 0 60074 72900.00000 0 -15198654.358 -7362553.403 19120078.589 10 0 60074 73800.00000 0 -16511284.348 -9175337.708 17143182.000 10 0 60074 74700.00000 0 -17791808.600 -10678734.081 14833341.224 10 0 60074 75600.00000 0 -18979119.532 -11858157.920 12235343.778 10 0 60074 76500.00000 0 -20012442.343 -12711930.947 9399600.335 10 0 60074 77400.00000 0 -20833945.324 -13251098.219 6381169.797 10 0 60074 78300.00000 0 -21391248.060 -13498715.827 3238691.098 10 0 60074 79200.00000 0 -21639721.196 -13488639.688 33242.393 10 0 60074 80100.00000 0 -21544479.932 -13263867.012 -3172849.888 10 0 60074 81000.00000 0 -21081986.039 -12874501.104 -6317228.449 10 0 60074 81900.00000 0 -20241189.623 -12375426.299 -9338724.581 10 0 60074 82800.00000 0 -19024161.289 -11823792.230 -12178555.024 10 0 60074 83700.00000 0 -17446186.961 -11276414.820 -14781472.141 10 0 60074 84600.00000 0 -15535320.389 -10787204.866 -17096844.260 10 0 60074 85500.00000 0 -13331411.388 -10404733.842 -19079644.598 10 0 60075 0.00000 0 -10884650.231 -10170040.571 -20691329.090 10 0 60075 900.00000 0 -8253687.370 -10114771.863 -21900586.789 10 0 60075 1800.00000 0 -5503410.130 -10259736.293 -22683946.332 10 0 60075 2700.00000 0 -2702464.552 -10613931.870 -23026229.874 10 0 60075 3600.00000 0 79371.402 -11174089.017 -22920843.903 10 0 60075 4500.00000 0 2773855.528 -11924747.913 -22369902.656 10 0 60075 5400.00000 0 5316879.264 -12838866.890 -21384182.015 10 0 60075 6300.00000 0 7650888.415 -13878936.164 -19982905.161 10 0 60075 7200.00000 0 9727026.898 -14998549.974 -18193364.362 10 0 60075 8100.00000 0 11506915.344 -16144370.887 -16050386.461 10 0 60075 9000.00000 0 12963991.757 -17258403.559 -13595652.459 10 0 60075 9900.00000 0 14084359.730 -18280482.253 -10876884.552 10 0 60075 10800.00000 0 14867110.376 -19150867.338 -7946916.420 10 0 60075 11700.00000 0 15324106.086 -19812841.410 -4862664.927 10 0 60075 12600.00000 0 15479236.828 -20215195.661 -1684023.373 10 0 60075 13500.00000 0 15367181.696 -20314501.654 1527302.051 10 0 60075 14400.00000 0 15031729.209 -20077072.779 4708989.830 10 0 60075 15300.00000 0 14523728.244 -19480532.697 7799311.231 10 0 60075 16200.00000 0 13898756.804 -18514924.636 10738325.443 10 0 60075 17100.00000 0 13214607.513 -17183314.671 13469038.609 10 0 60075 18000.00000 0 12528696.087 -15501863.260 15938504.430 10 0 60075 18900.00000 0 11895502.086 -13499361.575 18098845.415 10 0 60075 19800.00000 0 11364149.566 -11216251.320 19908175.509 10 0 60075 20700.00000 0 10976229.209 -8703168.140 21331406.848 10 0 60075 21600.00000 0 10763953.212 -6019068.355 22340925.718 10 0 60075 22500.00000 0 10748720.235 -3229015.746 22917125.255 10 0 60075 23400.00000 0 10940150.592 -401719.189 23048785.056 10 0 60075 24300.00000 0 11335632.311 2393077.965 22733290.638 10 0 60075 25200.00000 0 11920397.461 5087249.782 21976688.488 10 0 60075 26100.00000 0 12668126.176 7616872.013 20793575.324 10 0 60075 27000.00000 0 13542053.810 9924632.635 19206823.150 10 0 60075 27900.00000 0 14496535.650 11961969.398 17247144.587 10 0 60075 28800.00000 0 15479004.343 13690846.198 14952506.004 10 0 60075 29700.00000 0 16432238.534 15085094.790 12367398.795 10 0 60075 30600.00000 0 17296847.787 16131266.239 9541982.094 10 0 60075 31500.00000 0 18013869.358 16828956.776 6531112.845 10 0 60075 32400.00000 0 18527367.211 17190594.676 3393281.687 10 0 60075 33300.00000 0 18786923.135 17240697.411 189475.178 10 0 60075 34200.00000 0 18749913.973 17014630.736 -3018013.217 10 0 60075 35100.00000 0 18383477.696 16556922.548 -6166799.769 10 0 60075 36000.00000 0 17666084.066 15919203.318 -9195630.361 10 0 60075 36900.00000 0 16588642.237 15157860.864 -12045578.986 10 0 60075 37800.00000 0 15155097.298 14331509.429 -14661200.706 10 0 60075 38700.00000 0 13382489.375 13498380.850 -16991615.911 10 0 60075 39600.00000 0 11300471.783 12713748.875 -18991504.173 10 0 60075 40500.00000 0 8950307.566 12027496.041 -20621988.047 10 0 60075 41400.00000 0 6383385.766 11481926.308 -21851389.556 10 0 60075 42300.00000 0 3659318.962 11109915.965 -22655844.766 10 0 60075 43200.00000 0 843701.089 10933480.794 -23019764.849 10 0 60075 44100.00000 0 -1994381.413 10962819.684 -22936135.091 10 0 60075 45000.00000 0 -4784981.822 11195874.675 -22406646.515 10 0 60075 45900.00000 0 -7459959.709 11618425.504 -21441658.007 10 0 60075 46800.00000 0 -9955571.555 12204714.251 -20059990.032 10 0 60075 47700.00000 0 -12214878.356 12918573.305 -18288554.241 10 0 60075 48600.00000 0 -14189870.952 13715008.770 -16161826.319 10 0 60075 49500.00000 0 -15843225.640 14542172.243 -13721172.389 10 0 60075 50400.00000 0 -17149618.069 15343637.616 -11014042.143 10 0 60075 51300.00000 0 -18096541.891 16060886.624 -8093044.396 10 0 60075 52200.00000 0 -18684599.470 16635898.241 -5014923.129 10 0 60075 53100.00000 0 -18927253.836 17013732.449 -1839454.045 10 0 60075 54000.00000 0 -18850053.722 17144999.178 1371716.783 10 0 60075 54900.00000 0 -18489365.681 16988108.219 4556269.386 10 0 60075 55800.00000 0 -17890667.732 16511204.972 7652418.098 10 0 60075 56700.00000 0 -17106477.321 15693710.290 10600107.898 10 0 60075 57600.00000 0 -16194001.525 14527399.284 13342175.753 10 0 60075 58500.00000 0 -15212608.797 13016973.282 15825454.588 10 0 60075 59400.00000 0 -14221228.804 11180100.403 18001798.843 10 0 60075 60300.00000 0 -13275789.571 9046922.240 19829012.318 10 0 60075 61200.00000 0 -12426799.360 6659046.395 21271660.897 10 0 60075 62100.00000 0 -11717174.395 4068065.748 22301755.140 10 0 60075 63000.00000 0 -11180403.121 1333664.868 22899290.167 10 0 60075 63900.00000 0 -10839123.617 -1478609.057 23052632.851 10 0 60075 64800.00000 0 -10704173.516 -4299819.602 22758749.140 10 0 60075 65700.00000 0 -10774152.197 -7060257.592 22023267.098 10 0 60075 66600.00000 0 -11035513.760 -9692093.389 20860374.164 10 0 60075 67500.00000 0 -11463187.210 -12131956.085 19292550.059 10 0 60075 68400.00000 0 -12021698.363 -14323333.470 17350139.688 10 0 60075 69300.00000 0 -12666746.917 -16218693.671 15070773.405 10 0 60075 70200.00000 0 -13347172.918 -17781240.650 12498644.896 10 0 60075 71100.00000 0 -14007230.307 -18986230.650 9683659.772 10 0 60075 72000.00000 0 -14589071.892 -19821794.712 6680470.712 10 0 60075 72900.00000 0 -15035340.847 -20289232.925 3547417.481 10 0 60075 73800.00000 0 -15291758.866 -20402768.192 345392.241 10 0 60075 74700.00000 0 -15309600.870 -20188770.007 -2863347.493 10 0 60075 75600.00000 0 -15047950.637 -19684481.264 -6016394.694 10 0 60075 76500.00000 0 -14475640.738 -18936302.206 -9052413.091 10 0 60075 77400.00000 0 -13572793.465 -17997704.515 -11912337.251 10 0 60075 78300.00000 0 -12331896.258 -16926864.303 -14540528.261 10 0 60075 79200.00000 0 -10758364.913 -15784114.648 -16885861.808 10 0 60075 80100.00000 0 -8870569.606 -14629325.931 -18902726.860 10 0 60075 81000.00000 0 -6699321.520 -13519325.068 -20551915.192 10 0 60075 81900.00000 0 -4286840.665 -12505462.885 -21801384.393 10 0 60075 82800.00000 0 -1685247.368 -11631432.300 -22626879.607 10 0 60075 83700.00000 0 1045360.178 -10931429.120 -23012402.268 10 0 60075 84600.00000 0 3839162.635 -10428732.549 -22950517.149 10 0 60075 85500.00000 0 6627116.923 -10134764.569 -22442492.209 99